When you browse on this site, cookies collect data to enhance your experience and personalize the content and advertising you see.
Visit our Privacy Policy to learn more. By continuing to use the site, you agree to this use of cookies and data.
  • In Romania
  • List of Countries
  • For 7 days
  • Water Temperature
  • Satellite Maps
  • Weather Map
  • Weather Widgets
  • user-avatar
    Login

    Hourly Weather Yoro

    Today, 24 March, Sunday

    Time Temperature Precipitation Wind Pressure Humidity
    00:00 +15°C° 0 mm 0 mps 702 mmHg 95%
    01:00 +15°C° 0 mm 0 mps 701 mmHg 95%
    02:00 +15°C° 0 mm 0 mps 701 mmHg 95%
    03:00 +15°C° 0 mm 0 mps 701 mmHg 95%
    04:00 +14°C° 0 mm 0 mps 701 mmHg 95%
    05:00 +14°C° 0 mm 0 mps 701 mmHg 94%
    06:00 +14°C° 0 mm 0 mps 701 mmHg 94%
    07:00 +18°C° 0 mm 0 mps 702 mmHg 77%
    08:00 +21°C° 0 mm 0 mps 703 mmHg 60%
    09:00 +25°C° 0 mm 0 mps 704 mmHg 43%
    10:00 +29°C° 0 mm 1 mps 704 mmHg 37%
    11:00 +30°C° 0 mm 1 mps 703 mmHg 30%
    12:00 +32°C° 0 mm 2 mps 703 mmHg 24%
    13:00 +32°C° 0 mm 2 mps 702 mmHg 25%
    14:00 +32°C° 0 mm 2 mps 702 mmHg 27%
    15:00 +33°C° 0 mm 3 mps 701 mmHg 28%
    16:00 +29°C° 0 mm 2 mps 700 mmHg 39%
    17:00 +27°C° 0 mm 2 mps 700 mmHg 50%
    18:00 +24°C° 0 mm 2 mps 700 mmHg 61%
    19:00 +22°C° 0 mm 1 mps 700 mmHg 71%
    20:00 +21°C° 0 mm 1 mps 701 mmHg 82%
    21:00 +19°C° 0 mm 1 mps 701 mmHg 92%
    22:00 +19°C° 0 mm 1 mps 701 mmHg 93%
    23:00 +17°C° 0 mm 0 mps 701 mmHg 94%

    Tomorrow, 25 March, Monday

    Time Temperature Precipitation Wind Pressure Humidity
    00:00 +17°C° 0 mm 0 mps 701 mmHg 95%
    01:00 +17°C° 0 mm 0 mps 701 mmHg 95%
    02:00 +16°C° 0 mm 0 mps 700 mmHg 95%
    03:00 +16°C° 0 mm 0 mps 700 mmHg 95%
    04:00 +16°C° 0 mm 0 mps 700 mmHg 96%
    05:00 +15°C° 0 mm 0 mps 700 mmHg 96%
    06:00 +15°C° 0 mm 0 mps 700 mmHg 96%
    07:00 +19°C° 0 mm 0 mps 701 mmHg 79%
    08:00 +23°C° 0 mm 0 mps 702 mmHg 62%
    09:00 +26°C° 0 mm 0 mps 703 mmHg 45%
    10:00 +30°C° 0 mm 1 mps 703 mmHg 40%
    11:00 +31°C° 0 mm 1 mps 702 mmHg 34%
    12:00 +34°C° 0 mm 2 mps 702 mmHg 29%
    13:00 +32°C° 0 mm 2 mps 701 mmHg 31%
    14:00 +32°C° 0 mm 2 mps 700 mmHg 33%
    15:00 +33°C° 0 mm 3 mps 699 mmHg 35%
    16:00 +29°C° 0 mm 2 mps 699 mmHg 46%
    17:00 +27°C° 0 mm 2 mps 699 mmHg 56%
    18:00 +25°C° 0 mm 2 mps 699 mmHg 67%
    19:00 +24°C° 0.1 mm 1 mps 700 mmHg 76%
    20:00 +22°C° 0.1 mm 1 mps 700 mmHg 85%
    21:00 +21°C° 0.1 mm 1 mps 701 mmHg 94%
    22:00 +21°C° 0 mm 1 mps 701 mmHg 95%
    23:00 +21°C° 0 mm 1 mps 701 mmHg 96%

    Day after tomorrow, 26 March, Tuesday

    Time Temperature Precipitation Wind Pressure Humidity
    00:00 +19°C° 0 mm 0 mps 701 mmHg 96%
    01:00 +18°C° 0 mm 0 mps 700 mmHg 96%
    02:00 +18°C° 0 mm 0 mps 700 mmHg 96%
    03:00 +18°C° 0 mm 0 mps 700 mmHg 95%
    04:00 +18°C° 0 mm 0 mps 700 mmHg 95%
    05:00 +17°C° 0 mm 0 mps 700 mmHg 96%
    06:00 +17°C° 0 mm 0 mps 700 mmHg 96%
    07:00 +21°C° 0 mm 1 mps 701 mmHg 80%
    08:00 +24°C° 0 mm 1 mps 702 mmHg 64%
    09:00 +27°C° 0 mm 1 mps 703 mmHg 47%
    10:00 +29°C° 0 mm 2 mps 703 mmHg 42%
    11:00 +30°C° 0 mm 2 mps 702 mmHg 38%
    12:00 +33°C° 0 mm 3 mps 702 mmHg 33%
    13:00 +33°C° 0 mm 3 mps 701 mmHg 33%
    14:00 +31°C° 0 mm 3 mps 700 mmHg 34%
    15:00 +32°C° 0 mm 4 mps 699 mmHg 35%
    16:00 +29°C° 0 mm 3 mps 700 mmHg 44%
    17:00 +27°C° 0 mm 3 mps 700 mmHg 54%
    18:00 +25°C° 0 mm 2 mps 700 mmHg 63%
    19:00 +23°C° 0 mm 2 mps 700 mmHg 74%
    20:00 +21°C° 0 mm 1 mps 701 mmHg 84%
    21:00 +20°C° 0 mm 1 mps 701 mmHg 94%
    22:00 +20°C° 0 mm 1 mps 701 mmHg 95%
    23:00 +19°C° 0 mm 1 mps 701 mmHg 96%

    27 March, Wednesday

    Time Temperature Precipitation Wind Pressure Humidity
    00:00 +17°C° 0 mm 0 mps 701 mmHg 97%
    01:00 +17°C° 0 mm 0 mps 700 mmHg 96%
    02:00 +17°C° 0 mm 0 mps 700 mmHg 95%
    03:00 +17°C° 0 mm 0 mps 700 mmHg 95%
    04:00 +17°C° 0 mm 0 mps 700 mmHg 94%
    05:00 +17°C° 0 mm 0 mps 700 mmHg 94%
    06:00 +17°C° 0 mm 0 mps 701 mmHg 94%
    07:00 +21°C° 0 mm 1 mps 702 mmHg 82%
    08:00 +24°C° 0 mm 1 mps 702 mmHg 70%
    09:00 +27°C° 0 mm 2 mps 703 mmHg 58%
    10:00 +27°C° 0.1 mm 2 mps 703 mmHg 56%
    11:00 +28°C° 0.1 mm 2 mps 702 mmHg 54%
    12:00 +28°C° 0.1 mm 3 mps 702 mmHg 53%
    13:00 +28°C° 0.1 mm 3 mps 701 mmHg 54%
    14:00 +28°C° 0.1 mm 3 mps 701 mmHg 55%
    15:00 +28°C° 0.1 mm 3 mps 700 mmHg 56%
    16:00 +26°C° 0.1 mm 3 mps 700 mmHg 63%
    17:00 +25°C° 0.1 mm 2 mps 700 mmHg 69%
    18:00 +24°C° 0.1 mm 2 mps 701 mmHg 76%
    19:00 +23°C° 0 mm 2 mps 701 mmHg 82%
    20:00 +21°C° 0 mm 1 mps 701 mmHg 89%
    21:00 +20°C° 0 mm 1 mps 702 mmHg 95%
    22:00 +20°C° 0 mm 1 mps 701 mmHg 96%
    23:00 +20°C° 0 mm 1 mps 701 mmHg 96%

    28 March, Thursday

    Time Temperature Precipitation Wind Pressure Humidity
    00:00 +17°C° 0 mm 0 mps 701 mmHg 97%
    01:00 +17°C° 0 mm 0 mps 701 mmHg 97%
    02:00 +17°C° 0 mm 0 mps 700 mmHg 96%
    03:00 +17°C° 0 mm 0 mps 700 mmHg 96%
    04:00 +16°C° 0 mm 0 mps 700 mmHg 96%
    05:00 +16°C° 0 mm 0 mps 701 mmHg 96%
    06:00 +16°C° 0 mm 0 mps 701 mmHg 96%
    07:00 +21°C° 0 mm 1 mps 702 mmHg 82%
    08:00 +24°C° 0 mm 1 mps 703 mmHg 68%
    09:00 +27°C° 0 mm 2 mps 704 mmHg 54%
    10:00 +28°C° 0 mm 2 mps 703 mmHg 49%
    11:00 +29°C° 0 mm 2 mps 703 mmHg 45%
    12:00 +31°C° 0 mm 3 mps 702 mmHg 41%
    13:00 +30°C° 0 mm 3 mps 702 mmHg 44%
    14:00 +29°C° 0 mm 2 mps 701 mmHg 46%
    15:00 +29°C° 0 mm 2 mps 700 mmHg 49%
    16:00 +27°C° 0 mm 2 mps 700 mmHg 56%
    17:00 +26°C° 0 mm 2 mps 701 mmHg 62%
    18:00 +24°C° 0 mm 2 mps 701 mmHg 69%
    19:00 +23°C° 0 mm 1 mps 701 mmHg 77%
    20:00 +22°C° 0 mm 1 mps 701 mmHg 84%
    21:00 +20°C° 0 mm 1 mps 702 mmHg 92%
    22:00 +20°C° 0 mm 1 mps 701 mmHg 93%
    23:00 +19°C° 0 mm 1 mps 701 mmHg 95%

    29 March, Friday

    Time Temperature Precipitation Wind Pressure Humidity
    00:00 +17°C° 0 mm 0 mps 701 mmHg 97%
    01:00 +17°C° 0 mm 0 mps 701 mmHg 96%
    02:00 +16°C° 0 mm 0 mps 700 mmHg 96%
    03:00 +16°C° 0 mm 0 mps 700 mmHg 96%
    04:00 +15°C° 0 mm 0 mps 700 mmHg 95%
    05:00 +15°C° 0 mm 0 mps 700 mmHg 93%
    06:00 +15°C° 0 mm 1 mps 701 mmHg 92%
    07:00 +20°C° 0 mm 1 mps 702 mmHg 73%
    08:00 +24°C° 0 mm 1 mps 703 mmHg 53%
    09:00 +28°C° 0 mm 1 mps 703 mmHg 33%
    10:00 +31°C° 0 mm 1 mps 703 mmHg 29%
    11:00 +33°C° 0 mm 1 mps 703 mmHg 24%
    12:00 +35°C° 0 mm 1 mps 702 mmHg 19%
    13:00 +35°C° 0 mm 1 mps 702 mmHg 21%
    14:00 +35°C° 0 mm 2 mps 701 mmHg 23%
    15:00 +35°C° 0 mm 2 mps 700 mmHg 25%
    16:00 +31°C° 0 mm 2 mps 700 mmHg 38%
    17:00 +29°C° 0 mm 2 mps 700 mmHg 52%
    18:00 +26°C° 0 mm 2 mps 700 mmHg 66%
    19:00 +25°C° 0 mm 2 mps 700 mmHg 75%
    20:00 +23°C° 0 mm 1 mps 701 mmHg 85%
    21:00 +22°C° 0 mm 1 mps 701 mmHg 94%
    22:00 +22°C° 0.1 mm 1 mps 701 mmHg 94%
    23:00 +20°C° 0.1 mm 0 mps 701 mmHg 93%
    Show more